Flag for United Kingdom Weather past 2 weeks in Canterbury, England, United Kingdom

Now
43 °F

Quite cool.


Feels Like: 37 °F
Forecast: 48 / 61 °F
Wind: 10 mph from East

Location: Manston


UV Index: 3 (Moderate)

Visibility: 16 mi


Pressure: 30.41 "Hg

Humidity: 80%

Dew point: 37 °F

Location of CanterburyLocation

Historic Weather in Canterbury

°F

Canterbury temperature yesterday

Maximum temperature yesterday: 50 °F (at 3:00 PM)
Minimum temperature yesterday: 40 °F (at 10:00 PM)
Average temperature yesterday: 46 °F

Past Weeks' High & Low Weather Summary

 TemperatureHumidityPressure
High64 °F (Apr 1, 4:00 PM)100% (Apr 4, 12:00 AM)30.46 "Hg (Apr 4, 12:00 AM)
Low39 °F (Apr 9, 4:00 AM)48% (Apr 13, 5:00 PM)29.50 "Hg (Apr 3, 5:00 AM)
Average52 °F80%30.01 "Hg
* Reported Apr 1 4:00 AM — Apr 16 4:00 AM, Canterbury, Weather by CustomWeather, © 2014

Note: Actual official high and low records may vary slightly from our data, if they occured in-between our weather recording intervals... More about our weather records

Advertising

Historic Weather Conditions — Data for Previous 24 hours

 ConditionsComfort  
Time TempWeatherWind HumidityBarometerVisibility
4:00 AM
Apr 16
43 °FQuite cool.10 mph80%30.41 "Hg16 mi
3:00 AM42 °FQuite cool.10 mph79%30.41 "Hg17 mi
2:00 AM40 °FQuite cool.7 mph79%30.42 "Hg16 mi
1:00 AM42 °FQuite cool.9 mph78%30.42 "Hg16 mi
10:00 PM
Apr 15
40 °FChilly.6 mph78%30.43 "Hg16 mi
9:00 PM42 °FQuite cool.8 mph74%30.43 "Hg16 mi
8:00 PM43 °FQuite cool.8 mph68%30.42 "Hg16 mi
7:00 PM45 °FCool.10 mph65%30.42 "Hg17 mi
6:00 PM47 °FCool.12 mph61%30.43 "Hg17 mi
5:00 PM48 °FCool.12 mph59%30.43 "Hg19 mi
4:00 PM49 °FCool.12 mph58%30.44 "Hg19 mi
3:00 PM50 °FCool.13 mph56%30.45 "Hg19 mi
2:00 PM49 °FCool.13 mph56%30.46 "Hg19 mi
1:00 PM49 °FCool.14 mph59%30.45 "Hg19 mi
12:00 PM48 °FCool.14 mph61%30.45 "Hg22 mi
11:00 AM48 °FCool.12 mph61%30.44 "Hg19 mi
10:00 AM47 °FCool.12 mph66%30.44 "Hg19 mi
9:00 AM47 °FCool.10 mph67%30.42 "Hg18 mi
8:00 AM45 °FCool.13 mph72%30.41 "Hg17 mi
7:00 AM43 °FQuite cool.9 mph84%30.40 "Hg16 mi
Weather by CustomWeather, © 2014

See weather overview